Regional Weather Roundup
Issued by NWS Sterling, VA

Home | Current Version | Previous Version | Text Only | Print | Product List | Glossary Off
Versions: 1 2 3 4 5 6 7 8 9 10 11 12 13 14 15 16 17 18 19 20 21 22 23 24 25 26 27 28 29 30 31 32 33 34 35 36 37 38 39 40 41 42 43 44 45 46 47 48 49 50

000
ASUS41 KLWX 261110
RWRLWX

REGIONAL WEATHER ROUNDUP
NATIONAL WEATHER SERVICE BALTIMORE MD/WASHINGTON DC
600 AM EST SUN FEB 26 2017

Note: "FAIR" indicates few or no clouds below 12,000 feet
with no significant weather and/or obstructions to visibility.
 TC=TEMPERATURE CELSIUS

 * =Non NWS site. Station does not report precipitation (e.g. rain,
    snow, etc.), thunder, or fog.

DCZ001-MDZ009-015-VAZ040>042-051-053>054-261200-
WASHINGTON METRO

CITY           SKY/WX    TMP DP  RH WIND       PRES   REMARKS
WASHINGTON NAT PTCLDY    37  17  44 W17G28    30.04R WCI  27
DULLES         MOCLDY    34  15  46 NW15      30.03R WCI  24
ANDREWS AFB    MOCLDY    35  17  47 W21       30.00R WCI  24
FT BELVOIR     CLEAR     34  16  47 NW7       30.04R
QUANTICO       CLEAR     36  17  46 N12G22    30.06R WCI  28
COLLEGE PARK*  CLOUDY    36  19  51 NW9       30.02R WCI  29
LEESBURG*      CLOUDY    34  21  60 MISG      30.04R
MANASSAS*      CLEAR     32  16  51 NW9       30.05R WCI  24
GAITHERSBURG*  CLOUDY    32  12  43 NW17G24   30.04R WCI  21

$$

MDZ006>007-011-014-261200-
BALTIMORE METRO

CITY           SKY/WX    TMP DP  RH WIND       PRES   REMARKS
BWI AIRPORT    MOCLDY    36  19  50 NW15      30.00R WCI  27
MD SCIENCE CTR   N/A     38  18  44 MISG      30.00R
MARTIN STATE   MOCLDY    36  23  60 NW9       30.01R WCI  29
ANNAPOLIS      PTCLDY    39  21  48 NW14G25   30.00R
FORT MEADE*    CLOUDY    34  21  60 NW7       30.03R

$$

MDZ012-015-019>023-261200-
MARYLAND EASTERN SHORE

CITY           SKY/WX    TMP DP  RH WIND       PRES   REMARKS
OCEAN CITY     CLEAR     38  24  57 NW9       29.96R
SALISBURY      CLEAR     38  24  57 W12       29.97R
BAY BRIDGE AP* CLOUDY    37  23  56 NW15      30.01R WCI  28
CAMBRIDGE*     MOCLDY    37  21  52 NW13      30.01R
EASTON*        CLOUDY    39  23  51 N13       30.02R

$$

MDZ017>025-261200-
SOUTHERN MARYLAND

CITY           SKY/WX    TMP DP  RH WIND       PRES   REMARKS
PATUXENT RIVER CLEAR     38  23  55 NW20G28   30.00R WCI  28
ST INIGOES     CLEAR     38  22  52 NW9G22    30.01R
LEONARDTOWN*   CLEAR     36  21  55 NW8       30.03R

$$

MDZ003>005-261200-
NORTH CENTRAL MARYLAND

CITY           SKY/WX    TMP DP  RH WIND       PRES   REMARKS
FREDERICK*     CLOUDY    32  18  55 NW14G21   30.06R WCI  22
HAGERSTOWN APT CLOUDY    32  15  49 W16G28    30.01R WCI  21
WESTMINSTER*   MOCLDY    34  19  55 W12G18    29.98R WCI  25

$$

MDZ501>502-261200-
WESTERN MARYLAND

CITY           SKY/WX    TMP DP  RH WIND       PRES   REMARKS
OAKLAND*       CLOUDY    19  16  86 W10G18    29.91R FOG     WCI   8
CUMBERLAND*    CLOUDY    32  16  51 W12       30.08R WCI  23

$$

VAZ025>031-261200-
SHENANDOAH VALLEY

CITY           SKY/WX    TMP DP  RH WIND       PRES   REMARKS
WINCHESTER*    CLOUDY    32  14  47 NW15G21   30.03R WCI  22
FRONT ROYAL*   PTCLDY    32  16  51 W12       30.02R WCI  23
LURAY*         CLOUDY    32  21  64 W3        30.03R
NEW MARKET*    CLEAR     29  13  50 CALM      30.02R
STAUNTON*      CLEAR     28  15  60 NW5       30.03R
WAYNESBORO*    CLEAR     28  15  59 CALM      30.00R

$$

WVZ021-048>050-054>055-261200-
EASTERN WEST VIRGINIA PANHANDLE

CITY           SKY/WX    TMP DP  RH WIND       PRES   REMARKS
MARTINSBURG    CLOUDY    32  14  47 NW15G21   30.03R WCI  22
PETERSBURG*    CLOUDY    33  17  53 W8        30.05R WCI  26

$$

VAZ036>039-050-261200-
CENTRAL FOOTHILLS

CITY           SKY/WX    TMP DP  RH WIND       PRES   REMARKS
CHARLOTTESVILL CLEAR     34  17  50 VRB3      30.03R
CULPEPER*      CLEAR     32  19  58 CALM      30.06R
ORANGE*        CLEAR     34  18  51 W9        30.05R WCI  26
GORDONSVILLE*  CLEAR     32  20  61 CALM      30.03R
WARRENTON*     CLEAR     32  15  48 N7        30.04R

$$

VAZ055>057-261200-
NORTH AND CENTRAL PIEDMONT

CITY           SKY/WX    TMP DP  RH WIND       PRES   REMARKS
FREDERICKSBRG* CLEAR     35  22  58 NW7       30.04R
STAFFORD*      CLEAR     32  20  61 CALM      30.08R

$$

NCZ024-NYZ072-PAZ021-071-VAZ022-071-261200-
OTHER REGIONAL OBSERVATIONS

CITY           SKY/WX    TMP DP  RH WIND       PRES   REMARKS
NEW YORK CITY  CLEAR     36  18  48 NW8G21    29.87R
PHILADELPHIA   MOCLDY    38  20  48 NW16G26   29.95R WCI  29
PITTSBURGH     FLURRIES  26  21  81 W7        30.02R
ROANOKE        PTCLDY    32  16  51 W12       30.07R WCI  23
RICHMOND       CLEAR     37  23  56 NW7       30.03R
RALEIGH        CLEAR     38  18  44 NW5       30.08R

$$

ANZ530>537-261200-
MARINE OBSERVATIONS

STATION/POSITION TIME  TEMP    WIND        PRES
                       AIR SEA DIR/SP/G
                 (UTC) (F)     (DEG/KT/KT) (MB)
THOMAS PT LIGHT  1100   37 44  320/ 13/ 14   N/A
BALT KEY BRIDGE  1048   37     300/ 20/ 22 1015.4R
COVE POINT       1048   37     330/ 14/ 18 1016.6R
LEWISETTA        1048   40 50  350/ 13/ 20 1015.9R
SOLOMONS ISLAND  1048   38 45  320/ 10/ 15   N/A
PINEY POINT      1048          350/ 21/ 24   N/A

$$




USA.gov is the U.S. government's official web portal to all federal, state and local government web resources and services.